Time,TemperatureF,DewpointF,PressureIn,WindDirection,WindDirectionDegrees,WindSpeedMPH,WindSpeedGustMPH,Humidity,HourlyPrecipIn,Conditions,Clouds,dailyrainin,SoftwareType,DateUTC
2013-10-06 00:00:00,76.0,74.8,29.89,WSW,257,0.0,0.0,96,0.00,,---,0.00,VWS V14.01,2013-10-06 04:00:00,
2013-10-06 00:01:00,76.0,74.8,29.89,WSW,257,0.0,0.0,96,0.00,,---,0.00,VWS V14.01,2013-10-06 04:01:00,
2013-10-06 00:02:00,76.0,74.8,29.89,WSW,257,0.0,0.0,96,0.00,,---,0.00,VWS V14.01,2013-10-06 04:02:00,
2013-10-06 00:07:00,75.8,74.6,29.89,WSW,257,0.0,0.0,96,0.00,,---,0.00,VWS V14.01,2013-10-06 04:07:00,
2013-10-06 00:10:00,75.8,74.6,29.89,WSW,257,0.0,0.0,96,0.00,,---,0.00,VWS V14.01,2013-10-06 04:10:00,
2013-10-06 00:12:00,75.8,74.6,29.89,WSW,257,0.0,0.0,96,0.00,,---,0.00,VWS V14.01,2013-10-06 04:12:00,
2013-10-06 00:17:00,75.6,74.4,29.89,WSW,257,0.0,0.0,96,0.00,,---,0.00,VWS V14.01,2013-10-06 04:17:00,
2013-10-06 00:20:00,77.2,76.0,29.90,WSW,257,0.0,0.0,96,0.00,,---,0.00,VWS V14.01,2013-10-06 04:20:00,
2013-10-06 00:22:00,75.4,74.2,29.89,WSW,257,0.0,0.0,96,0.00,,---,0.00,VWS V14.01,2013-10-06 04:22:00,
2013-10-06 00:27:00,75.4,74.2,29.89,WSW,257,0.0,0.0,96,0.00,,---,0.00,VWS V14.01,2013-10-06 04:27:00,
2013-10-06 00:30:00,75.3,74.1,29.89,WSW,257,0.0,0.0,96,0.00,,---,0.00,VWS V14.01,2013-10-06 04:30:00,
2013-10-06 00:32:00,75.3,74.1,29.89,WSW,257,0.0,0.0,96,0.00,,---,0.00,VWS V14.01,2013-10-06 04:32:00,
2013-10-06 00:37:00,75.1,73.9,29.89,WSW,257,0.0,0.0,96,0.00,,---,0.00,VWS V14.01,2013-10-06 04:37:00,
2013-10-06 00:40:00,76.5,75.3,29.90,WSW,257,0.0,0.0,96,0.00,,---,0.00,VWS V14.01,2013-10-06 04:40:00,
2013-10-06 00:42:00,75.1,73.9,29.89,WSW,257,0.0,0.0,96,0.00,,---,0.00,VWS V14.01,2013-10-06 04:42:00,
2013-10-06 00:47:00,74.9,73.7,29.89,WSW,257,0.0,0.0,96,0.00,,---,0.00,VWS V14.01,2013-10-06 04:47:00,
2013-10-06 00:50:00,76.3,75.1,29.90,WSW,257,0.0,0.0,96,0.00,,---,0.00,VWS V14.01,2013-10-06 04:50:00,
2013-10-06 00:52:00,74.7,73.5,29.89,WSW,257,0.0,0.0,96,0.00,,---,0.00,VWS V14.01,2013-10-06 04:52:00,
2013-10-06 00:57:00,74.7,73.5,29.89,WSW,257,0.0,0.0,96,0.00,,---,0.00,VWS V14.01,2013-10-06 04:57:00,
2013-10-06 01:00:00,76.1,74.9,29.89,WSW,257,0.0,0.0,96,0.00,,---,0.00,VWS V14.01,2013-10-06 05:00:00,
2013-10-06 01:02:00,74.6,73.4,29.89,WSW,257,0.0,0.0,96,0.00,,---,0.00,VWS V14.01,2013-10-06 05:02:00,
2013-10-06 01:07:00,74.4,73.2,29.89,WSW,257,0.0,0.0,96,0.00,,---,0.00,VWS V14.01,2013-10-06 05:07:00,
2013-10-06 01:10:00,75.8,74.6,29.89,WSW,257,0.0,0.0,96,0.00,,---,0.00,VWS V14.01,2013-10-06 05:10:00,
2013-10-06 01:12:00,74.4,73.2,29.89,WSW,257,0.0,0.0,96,0.00,,---,0.00,VWS V14.01,2013-10-06 05:12:00,
2013-10-06 01:17:00,74.2,73.0,29.89,WSW,257,0.0,0.0,96,0.00,,---,0.00,VWS V14.01,2013-10-06 05:17:00,
2013-10-06 01:20:00,75.6,74.4,29.89,WSW,257,0.0,0.0,96,0.00,,---,0.00,VWS V14.01,2013-10-06 05:20:00,
2013-10-06 01:22:00,74.0,72.8,29.89,WSW,257,0.0,0.0,96,0.00,,---,0.00,VWS V14.01,2013-10-06 05:22:00,
2013-10-06 01:27:00,74.0,72.8,29.89,WSW,257,0.0,0.0,96,0.00,,---,0.00,VWS V14.01,2013-10-06 05:27:00,
2013-10-06 01:30:00,75.3,74.1,29.89,WSW,257,0.0,0.0,96,0.00,,---,0.00,VWS V14.01,2013-10-06 05:30:00,
2013-10-06 01:32:00,73.9,72.7,29.88,WSW,257,0.0,0.0,96,0.00,,---,0.00,VWS V14.01,2013-10-06 05:32:00,
2013-10-06 01:37:00,73.9,72.7,29.88,WSW,257,0.0,0.0,96,0.00,,---,0.00,VWS V14.01,2013-10-06 05:37:00,
2013-10-06 01:40:00,75.1,73.9,29.89,WSW,257,0.0,0.0,96,0.00,,---,0.00,VWS V14.01,2013-10-06 05:40:00,
2013-10-06 01:42:00,73.7,72.5,29.88,WSW,257,0.0,0.0,96,0.00,,---,0.00,VWS V14.01,2013-10-06 05:42:00,
2013-10-06 01:47:00,73.7,72.5,29.88,WSW,257,0.0,0.0,96,0.00,,---,0.00,VWS V14.01,2013-10-06 05:47:00,
2013-10-06 01:50:00,74.9,73.7,29.89,WSW,257,0.0,0.0,96,0.00,,---,0.00,VWS V14.01,2013-10-06 05:50:00,
2013-10-06 01:52:00,73.5,72.3,29.88,WSW,257,0.0,0.0,96,0.00,,---,0.00,VWS V14.01,2013-10-06 05:52:00,
2013-10-06 01:57:00,73.3,72.1,29.88,WSW,257,0.0,0.0,96,0.00,,---,0.00,VWS V14.01,2013-10-06 05:57:00,
2013-10-06 02:00:00,74.6,73.4,29.89,WSW,257,0.0,0.0,96,0.00,,---,0.00,VWS V14.01,2013-10-06 06:00:00,
2013-10-06 02:02:00,73.3,72.1,29.87,WSW,257,0.0,0.0,96,0.00,,---,0.00,VWS V14.01,2013-10-06 06:02:00,
2013-10-06 02:07:00,73.2,72.0,29.87,WSW,257,0.0,0.0,96,0.00,,---,0.00,VWS V14.01,2013-10-06 06:07:00,
2013-10-06 02:10:00,74.4,73.2,29.89,WSW,257,0.0,0.0,96,0.00,,---,0.00,VWS V14.01,2013-10-06 06:10:00,
2013-10-06 02:12:00,73.0,71.8,29.87,WSW,257,0.0,0.0,96,0.00,,---,0.00,VWS V14.01,2013-10-06 06:12:00,
2013-10-06 02:17:00,73.0,71.8,29.87,WSW,257,0.0,0.0,96,0.00,,---,0.00,VWS V14.01,2013-10-06 06:17:00,
2013-10-06 02:20:00,74.2,73.0,29.89,WSW,257,0.0,0.0,96,0.00,,---,0.00,VWS V14.01,2013-10-06 06:20:00,
2013-10-06 02:22:00,72.8,71.6,29.87,WSW,257,0.0,0.0,96,0.00,,---,0.00,VWS V14.01,2013-10-06 06:22:00,
2013-10-06 02:27:00,72.8,71.6,29.87,WSW,257,0.0,0.0,96,0.00,,---,0.00,VWS V14.01,2013-10-06 06:27:00,
2013-10-06 02:30:00,73.9,72.7,29.88,WSW,257,0.0,0.0,96,0.00,,---,0.00,VWS V14.01,2013-10-06 06:30:00,
2013-10-06 02:32:00,72.7,71.5,29.86,WSW,257,0.0,0.0,96,0.00,,---,0.00,VWS V14.01,2013-10-06 06:32:00,
2013-10-06 02:37:00,72.7,71.5,29.86,WSW,257,0.0,0.0,96,0.00,,---,0.00,VWS V14.01,2013-10-06 06:37:00,
2013-10-06 02:40:00,73.7,72.5,29.88,WSW,257,0.0,0.0,96,0.00,,---,0.00,VWS V14.01,2013-10-06 06:40:00,
2013-10-06 02:42:00,72.5,71.3,29.86,WSW,257,0.0,0.0,96,0.00,,---,0.00,VWS V14.01,2013-10-06 06:42:00,
2013-10-06 02:47:00,72.5,71.3,29.86,WSW,257,0.0,0.0,96,0.00,,---,0.00,VWS V14.01,2013-10-06 06:47:00,
2013-10-06 02:50:00,73.5,72.3,29.88,WSW,257,0.0,0.0,96,0.00,,---,0.00,VWS V14.01,2013-10-06 06:50:00,
2013-10-06 02:52:00,72.5,71.3,29.86,WSW,257,0.0,0.0,96,0.00,,---,0.00,VWS V14.01,2013-10-06 06:52:00,
2013-10-06 02:57:00,72.5,71.3,29.86,WSW,257,0.0,0.0,96,0.00,,---,0.00,VWS V14.01,2013-10-06 06:57:00,
2013-10-06 03:00:00,73.3,72.1,29.87,WSW,257,0.0,0.0,96,0.00,,---,0.00,VWS V14.01,2013-10-06 07:00:00,
2013-10-06 03:02:00,72.3,71.1,29.85,WSW,257,0.0,0.0,96,0.00,,---,0.00,VWS V14.01,2013-10-06 07:02:00,
2013-10-06 03:07:00,72.3,71.1,29.85,WSW,257,0.0,0.0,96,0.00,,---,0.00,VWS V14.01,2013-10-06 07:07:00,
2013-10-06 03:10:00,73.2,72.0,29.87,WSW,257,0.0,0.0,96,0.00,,---,0.00,VWS V14.01,2013-10-06 07:10:00,
2013-10-06 03:12:00,72.3,71.1,29.85,WSW,257,0.0,0.0,96,0.00,,---,0.00,VWS V14.01,2013-10-06 07:12:00,
2013-10-06 03:17:00,72.3,71.1,29.84,WSW,257,0.0,0.0,96,0.00,,---,0.00,VWS V14.01,2013-10-06 07:17:00,
2013-10-06 03:20:00,73.0,71.8,29.87,WSW,257,0.0,0.0,96,0.00,,---,0.00,VWS V14.01,2013-10-06 07:20:00,
2013-10-06 03:22:00,72.1,70.9,29.84,WSW,257,0.0,0.0,96,0.00,,---,0.00,VWS V14.01,2013-10-06 07:22:00,
2013-10-06 03:27:00,72.1,70.9,29.84,WSW,257,0.0,0.0,96,0.00,,---,0.00,VWS V14.01,2013-10-06 07:27:00,
2013-10-06 03:30:00,72.7,71.5,29.86,WSW,257,0.0,0.0,96,0.00,,---,0.00,VWS V14.01,2013-10-06 07:30:00,
2013-10-06 03:32:00,72.1,70.9,29.84,WSW,257,0.0,0.0,96,0.00,,---,0.00,VWS V14.01,2013-10-06 07:32:00,
2013-10-06 03:37:00,72.0,70.8,29.84,WSW,257,0.0,0.0,96,0.00,,---,0.00,VWS V14.01,2013-10-06 07:37:00,
2013-10-06 03:40:00,72.7,71.5,29.86,WSW,257,0.0,0.0,96,0.00,,---,0.00,VWS V14.01,2013-10-06 07:40:00,
2013-10-06 03:42:00,72.0,70.8,29.84,WSW,257,0.0,0.0,96,0.00,,---,0.00,VWS V14.01,2013-10-06 07:42:00,
2013-10-06 03:47:00,72.0,70.8,29.83,WSW,257,0.0,0.0,96,0.00,,---,0.00,VWS V14.01,2013-10-06 07:47:00,
2013-10-06 03:50:00,72.5,71.3,29.86,WSW,257,0.0,0.0,96,0.00,,---,0.00,VWS V14.01,2013-10-06 07:50:00,
2013-10-06 03:52:00,72.0,70.8,29.83,WSW,257,0.0,0.0,96,0.00,,---,0.00,VWS V14.01,2013-10-06 07:52:00,
2013-10-06 03:57:00,72.0,70.8,29.83,WSW,257,0.0,0.0,96,0.00,,---,0.00,VWS V14.01,2013-10-06 07:57:00,
2013-10-06 04:00:00,72.5,71.3,29.85,WSW,257,0.0,0.0,96,0.00,,---,0.00,VWS V14.01,2013-10-06 08:00:00,
2013-10-06 04:02:00,71.8,70.6,29.83,WSW,257,0.0,0.0,96,0.00,,---,0.00,VWS V14.01,2013-10-06 08:02:00,
2013-10-06 04:07:00,71.8,70.6,29.83,WSW,257,0.0,0.0,96,0.00,,---,0.00,VWS V14.01,2013-10-06 08:07:00,
2013-10-06 04:10:00,72.3,71.1,29.85,WSW,257,0.0,0.0,96,0.00,,---,0.00,VWS V14.01,2013-10-06 08:10:00,
2013-10-06 04:12:00,71.8,70.6,29.83,WSW,257,0.0,0.0,96,0.00,,---,0.00,VWS V14.01,2013-10-06 08:12:00,
2013-10-06 04:17:00,71.6,70.4,29.83,WSW,257,0.0,0.0,96,0.00,,---,0.00,VWS V14.01,2013-10-06 08:17:00,
2013-10-06 04:20:00,72.1,70.9,29.84,WSW,257,0.0,0.0,96,0.00,,---,0.00,VWS V14.01,2013-10-06 08:20:00,
2013-10-06 04:22:00,71.6,70.4,29.83,WSW,257,0.0,0.0,96,0.00,,---,0.00,VWS V14.01,2013-10-06 08:22:00,
2013-10-06 04:27:00,71.6,70.4,29.83,WSW,257,0.0,0.0,96,0.00,,---,0.00,VWS V14.01,2013-10-06 08:27:00,
2013-10-06 04:30:00,72.1,70.9,29.84,WSW,257,0.0,0.0,96,0.00,,---,0.00,VWS V14.01,2013-10-06 08:30:00,
2013-10-06 04:32:00,71.6,70.4,29.83,WSW,257,0.0,0.0,96,0.00,,---,0.00,VWS V14.01,2013-10-06 08:32:00,
2013-10-06 04:37:00,71.5,70.3,29.83,WSW,257,0.0,0.0,96,0.00,,---,0.00,VWS V14.01,2013-10-06 08:37:00,
2013-10-06 04:40:00,72.0,70.8,29.84,WSW,257,0.0,0.0,96,0.00,,---,0.00,VWS V14.01,2013-10-06 08:40:00,
2013-10-06 04:42:00,71.5,70.3,29.83,WSW,257,0.0,0.0,96,0.00,,---,0.00,VWS V14.01,2013-10-06 08:42:00,
2013-10-06 04:46:00,71.3,70.1,29.82,WSW,257,0.0,0.0,96,0.00,,---,0.00,VWS V14.01,2013-10-06 08:46:00,
2013-10-06 04:50:00,72.0,70.8,29.83,WSW,257,0.0,0.0,96,0.00,,---,0.00,VWS V14.01,2013-10-06 08:50:00,
2013-10-06 04:51:00,71.5,70.3,29.82,WSW,257,0.0,0.0,96,0.00,,---,0.00,VWS V14.01,2013-10-06 08:51:00,
2013-10-06 04:56:00,71.5,70.3,29.82,WSW,257,0.0,0.0,96,0.00,,---,0.00,VWS V14.01,2013-10-06 08:56:00,
2013-10-06 05:00:00,71.8,70.6,29.83,WSW,257,0.0,0.0,96,0.00,,---,0.00,VWS V14.01,2013-10-06 09:00:00,
2013-10-06 05:01:00,71.3,70.1,29.83,WSW,257,0.0,0.0,96,0.00,,---,0.00,VWS V14.01,2013-10-06 09:01:00,
2013-10-06 05:06:00,71.3,70.1,29.83,WSW,257,0.0,0.0,96,0.00,,---,0.00,VWS V14.01,2013-10-06 09:06:00,
2013-10-06 05:09:00,71.1,69.9,29.83,WSW,257,0.0,0.0,96,0.00,,---,0.00,VWS V14.01,2013-10-06 09:09:00,
2013-10-06 05:10:00,71.8,70.6,29.83,WSW,257,0.0,0.0,96,0.00,,---,0.00,VWS V14.01,2013-10-06 09:10:00,
2013-10-06 05:14:00,71.1,69.9,29.83,WSW,257,0.0,0.0,96,0.00,,---,0.00,VWS V14.01,2013-10-06 09:14:00,
2013-10-06 05:19:00,71.1,69.9,29.83,WSW,257,0.0,0.0,96,0.00,,---,0.00,VWS V14.01,2013-10-06 09:19:00,
2013-10-06 05:20:00,71.6,70.4,29.83,WSW,257,0.0,0.0,96,0.00,,---,0.00,VWS V14.01,2013-10-06 09:20:00,
2013-10-06 05:24:00,71.1,69.9,29.83,WSW,257,0.0,0.0,96,0.00,,---,0.00,VWS V14.01,2013-10-06 09:24:00,
2013-10-06 05:29:00,71.1,69.9,29.83,WSW,257,0.0,0.0,96,0.00,,---,0.00,VWS V14.01,2013-10-06 09:29:00,
2013-10-06 05:30:00,71.6,70.4,29.83,WSW,257,0.0,0.0,96,0.00,,---,0.00,VWS V14.01,2013-10-06 09:30:00,
2013-10-06 05:34:00,71.1,69.9,29.83,WSW,257,0.0,0.0,96,0.00,,---,0.00,VWS V14.01,2013-10-06 09:34:00,
2013-10-06 05:39:00,71.1,69.9,29.83,WSW,257,0.0,0.0,96,0.00,,---,0.00,VWS V14.01,2013-10-06 09:39:00,
2013-10-06 05:40:00,71.5,70.3,29.83,WSW,257,0.0,0.0,96,0.00,,---,0.00,VWS V14.01,2013-10-06 09:40:00,
2013-10-06 05:44:00,71.1,69.9,29.83,WSW,257,0.0,0.0,96,0.00,,---,0.00,VWS V14.01,2013-10-06 09:44:00,
2013-10-06 05:49:00,71.3,70.1,29.83,WSW,257,0.0,0.0,96,0.00,,---,0.00,VWS V14.01,2013-10-06 09:49:00,
2013-10-06 05:50:00,71.3,70.1,29.82,WSW,257,0.0,0.0,96,0.00,,---,0.00,VWS V14.01,2013-10-06 09:50:00,
2013-10-06 05:54:00,71.3,70.1,29.83,WSW,257,0.0,0.0,96,0.00,,---,0.00,VWS V14.01,2013-10-06 09:54:00,
2013-10-06 05:59:00,71.3,70.1,29.83,WSW,257,0.0,0.0,96,0.00,,---,0.00,VWS V14.01,2013-10-06 09:59:00,
2013-10-06 06:00:00,71.5,70.3,29.83,WSW,257,0.0,0.0,96,0.00,,---,0.00,VWS V14.01,2013-10-06 10:00:00,
2013-10-06 06:04:00,71.1,69.9,29.83,WSW,257,0.0,0.0,96,0.00,,---,0.00,VWS V14.01,2013-10-06 10:04:00,
2013-10-06 06:09:00,71.1,69.9,29.83,WSW,257,0.0,0.0,96,0.00,,---,0.00,VWS V14.01,2013-10-06 10:09:00,
2013-10-06 06:10:00,71.1,69.9,29.83,WSW,257,0.0,0.0,96,0.00,,---,0.00,VWS V14.01,2013-10-06 10:10:00,
2013-10-06 06:14:00,71.1,69.9,29.83,WSW,257,0.0,0.0,96,0.00,,---,0.00,VWS V14.01,2013-10-06 10:14:00,
2013-10-06 06:19:00,71.1,69.9,29.83,WSW,257,0.0,0.0,96,0.00,,---,0.00,VWS V14.01,2013-10-06 10:19:00,
2013-10-06 06:20:00,71.1,69.9,29.83,WSW,257,0.0,0.0,96,0.00,,---,0.00,VWS V14.01,2013-10-06 10:20:00,
2013-10-06 06:24:00,71.1,69.9,29.83,WSW,257,0.0,0.0,96,0.00,,---,0.00,VWS V14.01,2013-10-06 10:24:00,
2013-10-06 06:29:00,71.1,69.9,29.84,WSW,257,0.0,0.0,96,0.00,,---,0.00,VWS V14.01,2013-10-06 10:29:00,
2013-10-06 06:30:00,71.1,69.9,29.83,WSW,257,0.0,0.0,96,0.00,,---,0.00,VWS V14.01,2013-10-06 10:30:00,
2013-10-06 06:34:00,71.1,69.9,29.84,WSW,257,0.0,0.0,96,0.00,,---,0.00,VWS V14.01,2013-10-06 10:34:00,
2013-10-06 06:39:00,71.1,69.9,29.84,WSW,257,0.0,0.0,96,0.00,,---,0.00,VWS V14.01,2013-10-06 10:39:00,
2013-10-06 06:40:00,71.1,69.9,29.83,WSW,257,0.0,0.0,96,0.00,,---,0.00,VWS V14.01,2013-10-06 10:40:00,
2013-10-06 06:44:00,71.1,69.9,29.84,WSW,257,0.0,0.0,96,0.00,,---,0.00,VWS V14.01,2013-10-06 10:44:00,
2013-10-06 06:49:00,71.1,69.9,29.84,WSW,257,0.0,0.0,96,0.00,,---,0.00,VWS V14.01,2013-10-06 10:49:00,
2013-10-06 06:50:00,71.3,70.1,29.83,WSW,257,0.0,0.0,96,0.00,,---,0.00,VWS V14.01,2013-10-06 10:50:00,
2013-10-06 06:54:00,71.1,69.9,29.84,WSW,257,0.0,0.0,96,0.00,,---,0.00,VWS V14.01,2013-10-06 10:54:00,
2013-10-06 06:59:00,70.9,69.7,29.84,WSW,257,0.0,0.0,96,0.00,,---,0.00,VWS V14.01,2013-10-06 10:59:00,
2013-10-06 07:00:00,71.3,70.1,29.83,WSW,257,0.0,0.0,96,0.00,,---,0.00,VWS V14.01,2013-10-06 11:00:00,
2013-10-06 07:04:00,70.9,69.7,29.84,WSW,257,0.0,0.0,96,0.00,,---,0.00,VWS V14.01,2013-10-06 11:04:00,
2013-10-06 07:09:00,70.9,69.7,29.84,WSW,257,0.0,0.0,96,0.00,,---,0.00,VWS V14.01,2013-10-06 11:09:00,
2013-10-06 07:10:00,71.1,69.9,29.83,WSW,257,0.0,0.0,96,0.00,,---,0.00,VWS V14.01,2013-10-06 11:10:00,
2013-10-06 07:14:00,70.9,69.7,29.85,WSW,257,0.0,0.0,96,0.00,,---,0.00,VWS V14.01,2013-10-06 11:14:00,
2013-10-06 07:19:00,70.8,69.6,29.85,WSW,257,0.0,0.0,96,0.00,,---,0.00,VWS V14.01,2013-10-06 11:19:00,
2013-10-06 07:20:00,71.1,69.9,29.83,WSW,257,0.0,0.0,96,0.00,,---,0.00,VWS V14.01,2013-10-06 11:20:00,
2013-10-06 07:24:00,70.8,69.6,29.85,WSW,257,0.0,0.0,96,0.00,,---,0.00,VWS V14.01,2013-10-06 11:24:00,
2013-10-06 07:29:00,70.8,69.6,29.85,WSW,257,0.0,0.0,96,0.00,,---,0.00,VWS V14.01,2013-10-06 11:29:00,
2013-10-06 07:30:00,71.1,69.9,29.84,WSW,257,0.0,0.0,96,0.00,,---,0.00,VWS V14.01,2013-10-06 11:30:00,
2013-10-06 07:34:00,70.6,69.4,29.85,WSW,257,0.0,0.0,96,0.00,,---,0.00,VWS V14.01,2013-10-06 11:34:00,
2013-10-06 07:39:00,70.8,69.6,29.85,WSW,256,0.0,0.0,96,0.00,,---,0.00,VWS V14.01,2013-10-06 11:39:00,
2013-10-06 07:40:00,71.1,69.9,29.84,WSW,257,0.0,0.0,96,0.00,,---,0.00,VWS V14.01,2013-10-06 11:40:00,
2013-10-06 07:44:00,70.9,69.7,29.85,WSW,256,0.0,0.0,96,0.00,,---,0.00,VWS V14.01,2013-10-06 11:44:00,
2013-10-06 07:49:00,71.1,69.9,29.85,WSW,256,0.0,0.0,96,0.00,,---,0.00,VWS V14.01,2013-10-06 11:49:00,
2013-10-06 07:50:00,71.1,69.9,29.84,WSW,257,0.0,0.0,96,0.00,,---,0.00,VWS V14.01,2013-10-06 11:50:00,
2013-10-06 07:54:00,71.1,69.9,29.85,WSW,256,0.0,0.0,96,0.00,,---,0.00,VWS V14.01,2013-10-06 11:54:00,
2013-10-06 07:59:00,71.3,70.1,29.85,WSW,256,0.0,0.0,96,0.00,,---,0.00,VWS V14.01,2013-10-06 11:59:00,
2013-10-06 08:00:00,70.9,69.7,29.84,WSW,257,0.0,0.0,96,0.00,,---,0.00,VWS V14.01,2013-10-06 12:00:00,
2013-10-06 08:04:00,71.5,70.3,29.85,WSW,256,0.0,0.0,96,0.00,,---,0.00,VWS V14.01,2013-10-06 12:04:00,
2013-10-06 08:09:00,71.6,70.4,29.85,WSW,256,0.0,0.0,96,0.00,,---,0.00,VWS V14.01,2013-10-06 12:09:00,
2013-10-06 08:10:00,70.9,69.7,29.84,WSW,257,0.0,0.0,96,0.00,,---,0.00,VWS V14.01,2013-10-06 12:10:00,
2013-10-06 08:14:00,72.0,70.8,29.85,WSW,256,0.0,0.0,96,0.00,,---,0.00,VWS V14.01,2013-10-06 12:14:00,
2013-10-06 08:19:00,72.3,71.1,29.85,WSW,256,0.0,0.0,96,0.00,,---,0.00,VWS V14.01,2013-10-06 12:19:00,
2013-10-06 08:20:00,70.8,69.6,29.85,WSW,257,0.0,0.0,96,0.00,,---,0.00,VWS V14.01,2013-10-06 12:20:00,
2013-10-06 08:24:00,72.8,71.6,29.85,WSW,256,0.0,0.0,96,0.00,,---,0.00,VWS V14.01,2013-10-06 12:24:00,
2013-10-06 08:29:00,73.2,72.0,29.85,WSW,256,0.0,0.0,96,0.00,,---,0.00,VWS V14.01,2013-10-06 12:29:00,
2013-10-06 08:30:00,70.6,69.4,29.85,WSW,257,0.0,0.0,96,0.00,,---,0.00,VWS V14.01,2013-10-06 12:30:00,
2013-10-06 08:34:00,73.5,72.3,29.85,East,93,0.0,0.0,96,0.00,,---,0.00,VWS V14.01,2013-10-06 12:34:00,
2013-10-06 08:39:00,73.9,72.7,29.85,East,93,0.0,0.0,96,0.00,,---,0.00,VWS V14.01,2013-10-06 12:39:00,
2013-10-06 08:40:00,70.8,69.6,29.85,WSW,256,0.0,0.0,96,0.00,,---,0.00,VWS V14.01,2013-10-06 12:40:00,
2013-10-06 08:44:00,74.0,72.8,29.86,East,93,0.0,0.0,96,0.00,,---,0.00,VWS V14.01,2013-10-06 12:44:00,
2013-10-06 08:49:00,74.4,73.2,29.86,East,93,0.0,0.0,96,0.00,,---,0.00,VWS V14.01,2013-10-06 12:49:00,
2013-10-06 08:50:00,71.1,69.9,29.85,WSW,256,0.0,0.0,96,0.00,,---,0.00,VWS V14.01,2013-10-06 12:50:00,
2013-10-06 08:54:00,74.6,73.4,29.86,East,93,0.0,1.0,96,0.00,,---,0.00,VWS V14.01,2013-10-06 12:54:00,
2013-10-06 08:59:00,74.9,73.7,29.86,East,93,0.0,1.0,96,0.00,,---,0.00,VWS V14.01,2013-10-06 12:59:00,
2013-10-06 09:00:00,71.3,70.1,29.85,WSW,256,0.0,0.0,96,0.00,,---,0.00,VWS V14.01,2013-10-06 13:00:00,
2013-10-06 09:04:00,75.1,73.9,29.86,East,93,0.0,0.0,96,0.00,,---,0.00,VWS V14.01,2013-10-06 13:04:00,
2013-10-06 09:09:00,75.4,74.2,29.86,East,93,0.0,0.0,96,0.00,,---,0.00,VWS V14.01,2013-10-06 13:09:00,
2013-10-06 09:10:00,71.8,70.6,29.85,WSW,256,0.0,0.0,96,0.00,,---,0.00,VWS V14.01,2013-10-06 13:10:00,
2013-10-06 09:14:00,75.8,74.6,29.86,East,97,0.0,0.0,96,0.00,,---,0.00,VWS V14.01,2013-10-06 13:14:00,
2013-10-06 09:19:00,76.0,74.8,29.86,East,97,0.0,0.0,96,0.00,,---,0.00,VWS V14.01,2013-10-06 13:19:00,
2013-10-06 09:20:00,72.3,71.1,29.85,WSW,256,0.0,0.0,96,0.00,,---,0.00,VWS V14.01,2013-10-06 13:20:00,
2013-10-06 09:24:00,76.5,75.3,29.86,SE,131,0.0,5.0,96,0.00,,---,0.00,VWS V14.01,2013-10-06 13:24:00,
2013-10-06 09:29:00,77.0,75.8,29.86,SE,141,0.0,5.0,96,0.00,,---,0.00,VWS V14.01,2013-10-06 13:29:00,
2013-10-06 09:30:00,73.2,72.0,29.85,WSW,256,0.0,0.0,96,0.00,,---,0.00,VWS V14.01,2013-10-06 13:30:00,
2013-10-06 09:34:00,77.7,76.5,29.86,SE,145,0.0,1.0,96,0.00,,---,0.00,VWS V14.01,2013-10-06 13:34:00,
2013-10-06 09:39:00,78.3,77.1,29.86,South,169,0.0,2.0,96,0.00,,---,0.00,VWS V14.01,2013-10-06 13:39:00,
2013-10-06 09:40:00,73.9,72.7,29.85,East,93,0.0,0.0,96,0.00,,---,0.00,VWS V14.01,2013-10-06 13:40:00,
2013-10-06 09:44:00,79.0,77.8,29.86,South,169,0.0,1.0,96,0.00,,---,0.00,VWS V14.01,2013-10-06 13:44:00,
2013-10-06 09:49:00,79.4,78.2,29.86,South,171,0.0,3.0,96,0.00,,---,0.00,VWS V14.01,2013-10-06 13:49:00,
2013-10-06 09:50:00,74.4,73.2,29.86,East,93,0.0,0.0,96,0.00,,---,0.00,VWS V14.01,2013-10-06 13:50:00,
2013-10-06 09:54:00,79.8,78.6,29.86,South,171,0.0,1.0,96,0.00,,---,0.00,VWS V14.01,2013-10-06 13:54:00,
2013-10-06 09:59:00,79.9,78.7,29.87,SSE,147,0.0,1.0,96,0.00,,---,0.00,VWS V14.01,2013-10-06 13:59:00,
2013-10-06 10:00:00,74.9,73.7,29.86,East,93,0.0,1.0,96,0.00,,---,0.00,VWS V14.01,2013-10-06 14:00:00,
2013-10-06 10:04:00,80.3,79.1,29.87,South,169,0.0,3.0,96,0.00,,---,0.00,VWS V14.01,2013-10-06 14:04:00,
2013-10-06 10:09:00,81.1,79.9,29.87,South,176,0.0,3.0,96,0.00,,---,0.00,VWS V14.01,2013-10-06 14:09:00,
2013-10-06 10:10:00,75.4,74.2,29.86,East,93,0.0,0.0,96,0.00,,---,0.00,VWS V14.01,2013-10-06 14:10:00,
2013-10-06 10:14:00,81.6,80.3,29.87,SSE,150,2.0,2.0,96,0.00,,---,0.00,VWS V14.01,2013-10-06 14:14:00,
2013-10-06 10:19:00,81.4,80.2,29.87,SE,138,0.0,2.0,96,0.00,,---,0.00,VWS V14.01,2013-10-06 14:19:00,
2013-10-06 10:20:00,76.1,74.9,29.86,East,97,3.0,3.0,96,0.00,,---,0.00,VWS V14.01,2013-10-06 14:20:00,
2013-10-06 10:24:00,82.0,80.8,29.87,SE,144,2.0,2.0,96,0.00,,---,0.00,VWS V14.01,2013-10-06 14:24:00,
2013-10-06 10:29:00,81.8,80.6,29.87,SSE,155,0.0,3.0,96,0.00,,---,0.00,VWS V14.01,2013-10-06 14:29:00,
2013-10-06 10:30:00,77.2,76.0,29.86,SE,143,0.0,5.0,96,0.00,,---,0.00,VWS V14.01,2013-10-06 14:30:00,
2013-10-06 10:34:00,81.8,80.6,29.87,SSE,155,0.0,2.0,96,0.00,,---,0.00,VWS V14.01,2013-10-06 14:34:00,
2013-10-06 10:39:00,81.8,80.6,29.87,SSW,196,0.0,2.0,96,0.00,,---,0.00,VWS V14.01,2013-10-06 14:39:00,
2013-10-06 10:40:00,78.5,77.3,29.86,South,169,0.0,2.0,96,0.00,,---,0.00,VWS V14.01,2013-10-06 14:40:00,
2013-10-06 10:44:00,82.2,80.9,29.87,SSE,165,1.0,3.0,96,0.00,,---,0.00,VWS V14.01,2013-10-06 14:44:00,
2013-10-06 10:48:00,82.6,81.3,29.87,South,172,0.0,3.0,96,0.00,,---,0.00,VWS V14.01,2013-10-06 14:48:00,
2013-10-06 10:50:00,79.4,78.2,29.86,South,171,0.0,3.0,96,0.00,,---,0.00,VWS V14.01,2013-10-06 14:50:00,
2013-10-06 10:53:00,83.2,81.9,29.87,SSE,158,0.0,2.0,96,0.00,,---,0.00,VWS V14.01,2013-10-06 14:53:00,
2013-10-06 10:58:00,83.8,82.5,29.87,South,188,0.0,2.0,96,0.00,,---,0.00,VWS V14.01,2013-10-06 14:58:00,
2013-10-06 11:00:00,79.9,78.7,29.87,South,182,1.0,5.0,96,0.00,,---,0.00,VWS V14.01,2013-10-06 15:00:00,
2013-10-06 11:03:00,83.8,82.2,29.87,South,171,0.0,0.0,95,0.00,,---,0.00,VWS V14.01,2013-10-06 15:03:00,
2013-10-06 11:08:00,83.6,81.4,29.87,WSW,237,0.0,3.0,93,0.00,,---,0.00,VWS V14.01,2013-10-06 15:08:00,
2013-10-06 11:10:00,81.2,80.0,29.87,South,178,0.0,3.0,96,0.00,,---,0.00,VWS V14.01,2013-10-06 15:10:00,
2013-10-06 11:13:00,83.8,80.6,29.86,SW,229,0.0,0.0,90,0.00,,---,0.00,VWS V14.01,2013-10-06 15:13:00,
2013-10-06 11:18:00,84.1,82.2,29.86,SSE,151,1.0,4.0,94,0.00,,---,0.00,VWS V14.01,2013-10-06 15:18:00,
2013-10-06 11:20:00,81.4,80.2,29.87,SE,138,0.0,2.0,96,0.00,,---,0.00,VWS V14.01,2013-10-06 15:20:00,
2013-10-06 11:23:00,84.7,81.8,29.86,West,277,0.0,1.0,91,0.00,,---,0.00,VWS V14.01,2013-10-06 15:23:00,
2013-10-06 11:28:00,84.5,79.8,29.86,South,171,0.0,3.0,86,0.00,,---,0.00,VWS V14.01,2013-10-06 15:28:00,
2013-10-06 11:30:00,81.8,80.6,29.87,SSE,155,0.0,3.0,96,0.00,,---,0.00,VWS V14.01,2013-10-06 15:30:00,
2013-10-06 11:33:00,84.7,79.0,29.86,West,275,0.0,2.0,83,0.00,,---,0.00,VWS V14.01,2013-10-06 15:33:00,
2013-10-06 11:38:00,85.5,80.8,29.86,West,268,0.0,2.0,86,0.00,,---,0.00,VWS V14.01,2013-10-06 15:38:00,
2013-10-06 11:40:00,81.8,80.6,29.87,SSW,196,0.0,2.0,96,0.00,,---,0.00,VWS V14.01,2013-10-06 15:40:00,
2013-10-06 11:43:00,85.9,81.9,29.86,South,174,0.0,1.0,88,0.00,,---,0.00,VWS V14.01,2013-10-06 15:43:00,
2013-10-06 11:48:00,86.1,79.6,29.86,West,268,0.0,2.0,81,0.00,,---,0.00,VWS V14.01,2013-10-06 15:48:00,
2013-10-06 11:50:00,82.6,81.3,29.87,South,172,0.0,3.0,96,0.00,,---,0.00,VWS V14.01,2013-10-06 15:50:00,
2013-10-06 11:53:00,85.9,79.8,29.86,WSW,257,0.0,1.0,82,0.00,,---,0.00,VWS V14.01,2013-10-06 15:53:00,
2013-10-06 11:58:00,85.9,81.2,29.86,WNW,298,0.0,2.0,86,0.00,,---,0.00,VWS V14.01,2013-10-06 15:58:00,
2013-10-06 12:00:00,83.8,82.5,29.87,South,175,0.0,2.0,96,0.00,,---,0.00,VWS V14.01,2013-10-06 16:00:00,
2013-10-06 12:03:00,86.3,80.5,29.86,SW,217,0.0,1.0,83,0.00,,---,0.00,VWS V14.01,2013-10-06 16:03:00,
2013-10-06 12:08:00,86.7,80.9,29.86,South,171,1.0,2.0,83,0.00,,---,0.00,VWS V14.01,2013-10-06 16:08:00,
2013-10-06 12:10:00,83.8,81.2,29.87,WSW,237,0.0,3.0,92,0.00,,---,0.00,VWS V14.01,2013-10-06 16:10:00,
2013-10-06 12:13:00,86.5,80.0,29.86,West,278,0.0,1.0,81,0.00,,---,0.00,VWS V14.01,2013-10-06 16:13:00,
2013-10-06 12:18:00,87.0,80.5,29.86,SSE,160,1.0,1.0,81,0.00,,---,0.00,VWS V14.01,2013-10-06 16:18:00,
2013-10-06 12:20:00,84.1,81.2,29.86,SSE,151,0.0,4.0,91,0.00,,---,0.00,VWS V14.01,2013-10-06 16:20:00,
2013-10-06 12:23:00,87.2,81.0,29.86,South,189,0.0,2.0,82,0.00,,---,0.00,VWS V14.01,2013-10-06 16:23:00,
2013-10-06 12:28:00,87.0,77.7,29.85,West,281,1.0,5.0,74,0.00,,---,0.00,VWS V14.01,2013-10-06 16:28:00,
2013-10-06 12:30:00,84.5,79.9,29.86,South,172,0.0,3.0,86,0.00,,---,0.00,VWS V14.01,2013-10-06 16:30:00,
2013-10-06 12:33:00,87.0,80.5,29.85,West,274,0.0,1.0,81,0.00,,---,0.00,VWS V14.01,2013-10-06 16:33:00,
2013-10-06 12:38:00,86.5,79.2,29.85,West,271,0.0,1.0,79,0.00,,---,0.00,VWS V14.01,2013-10-06 16:38:00,
2013-10-06 12:40:00,85.5,80.8,29.86,West,268,0.0,2.0,86,0.00,,---,0.00,VWS V14.01,2013-10-06 16:40:00,
2013-10-06 12:43:00,86.3,79.4,29.85,NW,305,3.0,3.0,80,0.00,,---,0.00,VWS V14.01,2013-10-06 16:43:00,
2013-10-06 12:48:00,86.3,80.5,29.85,NW,305,0.0,3.0,83,0.00,,---,0.00,VWS V14.01,2013-10-06 16:48:00,
2013-10-06 12:50:00,86.1,79.2,29.86,West,268,0.0,2.0,80,0.00,,---,0.00,VWS V14.01,2013-10-06 16:50:00,
2013-10-06 12:53:00,87.0,78.1,29.85,WNW,287,0.0,2.0,75,0.00,,---,0.00,VWS V14.01,2013-10-06 16:53:00,
2013-10-06 12:58:00,87.4,78.9,29.84,WNW,285,0.0,2.0,76,0.00,,---,0.00,VWS V14.01,2013-10-06 16:58:00,
2013-10-06 13:00:00,85.9,80.1,29.86,WNW,298,0.0,2.0,83,0.00,,---,0.00,VWS V14.01,2013-10-06 17:00:00,
2013-10-06 13:03:00,87.8,78.9,29.84,South,182,0.0,2.0,75,0.00,,---,0.00,VWS V14.01,2013-10-06 17:03:00,
2013-10-06 13:08:00,88.0,79.5,29.84,WNW,295,0.0,2.0,76,0.00,,---,0.00,VWS V14.01,2013-10-06 17:08:00,
2013-10-06 13:10:00,86.7,80.6,29.86,SSE,152,0.0,2.0,82,0.00,,---,0.00,VWS V14.01,2013-10-06 17:10:00,
2013-10-06 13:13:00,88.2,79.3,29.83,West,265,0.0,3.0,75,0.00,,---,0.00,VWS V14.01,2013-10-06 17:13:00,
2013-10-06 13:18:00,88.4,79.1,29.83,SW,229,0.0,3.0,74,0.00,,---,0.00,VWS V14.01,2013-10-06 17:18:00,
2013-10-06 13:20:00,86.7,80.6,29.86,SSE,160,0.0,1.0,82,0.00,,---,0.00,VWS V14.01,2013-10-06 17:20:00,
2013-10-06 13:23:00,88.8,79.0,29.83,West,281,1.0,2.0,73,0.00,,---,0.00,VWS V14.01,2013-10-06 17:23:00,
2013-10-06 13:28:00,88.6,78.0,29.83,West,272,0.0,2.0,71,0.00,,---,0.00,VWS V14.01,2013-10-06 17:28:00,
2013-10-06 13:30:00,87.0,78.5,29.85,West,274,0.0,5.0,76,0.00,,---,0.00,VWS V14.01,2013-10-06 17:30:00,
2013-10-06 13:33:00,89.0,77.9,29.83,South,179,0.0,5.0,70,0.00,,---,0.00,VWS V14.01,2013-10-06 17:33:00,
2013-10-06 13:38:00,89.5,80.9,29.83,South,179,0.0,5.0,76,0.00,,---,0.00,VWS V14.01,2013-10-06 17:38:00,
2013-10-06 13:40:00,86.5,79.6,29.85,West,271,0.0,1.0,80,0.00,,---,0.00,VWS V14.01,2013-10-06 17:40:00,
2013-10-06 13:43:00,89.7,76.8,29.82,SSW,196,1.0,5.0,66,0.00,,---,0.00,VWS V14.01,2013-10-06 17:43:00,
2013-10-06 13:48:00,89.9,77.9,29.82,SW,219,0.0,5.0,68,0.00,,---,0.00,VWS V14.01,2013-10-06 17:48:00,
2013-10-06 13:50:00,86.3,79.0,29.85,NW,305,0.0,3.0,79,0.00,,---,0.00,VWS V14.01,2013-10-06 17:50:00,
2013-10-06 13:53:00,89.9,76.6,29.82,WNW,288,0.0,3.0,65,0.00,,---,0.00,VWS V14.01,2013-10-06 17:53:00,
2013-10-06 13:58:00,89.7,78.2,29.82,NW,309,0.0,3.0,69,0.00,,---,0.00,VWS V14.01,2013-10-06 17:58:00,
2013-10-06 14:00:00,87.4,78.5,29.84,WNW,285,0.0,2.0,75,0.00,,---,0.00,VWS V14.01,2013-10-06 18:00:00,
2013-10-06 14:03:00,89.7,77.3,29.82,SSE,168,0.0,3.0,67,0.00,,---,0.00,VWS V14.01,2013-10-06 18:03:00,
2013-10-06 14:08:00,89.9,76.6,29.82,West,278,7.0,7.0,65,0.00,,---,0.00,VWS V14.01,2013-10-06 18:08:00,
2013-10-06 14:10:00,88.2,78.5,29.84,WNW,289,0.0,2.0,73,0.00,,---,0.00,VWS V14.01,2013-10-06 18:10:00,
2013-10-06 14:13:00,90.1,78.6,29.81,West,271,0.0,1.0,69,0.00,,---,0.00,VWS V14.01,2013-10-06 18:13:00,
2013-10-06 14:18:00,90.5,78.1,29.81,SSE,164,0.0,5.0,67,0.00,,---,0.00,VWS V14.01,2013-10-06 18:18:00,
2013-10-06 14:20:00,88.4,79.1,29.83,SW,229,0.0,3.0,74,0.00,,---,0.00,VWS V14.01,2013-10-06 18:20:00,
2013-10-06 14:23:00,90.3,76.5,29.81,SSW,199,0.0,5.0,64,0.00,,---,0.00,VWS V14.01,2013-10-06 18:23:00,
2013-10-06 14:28:00,90.7,76.4,29.81,SSW,202,0.0,5.0,63,0.00,,---,0.00,VWS V14.01,2013-10-06 18:28:00,
2013-10-06 14:30:00,88.8,78.2,29.83,West,272,0.0,2.0,71,0.00,,---,0.00,VWS V14.01,2013-10-06 18:30:00,
2013-10-06 14:33:00,90.7,76.4,29.81,SSE,157,0.0,6.0,63,0.00,,---,0.00,VWS V14.01,2013-10-06 18:33:00,
2013-10-06 14:38:00,90.5,77.1,29.81,South,184,0.0,6.0,65,0.00,,---,0.00,VWS V14.01,2013-10-06 18:38:00,
2013-10-06 14:40:00,89.5,78.9,29.83,South,178,0.0,5.0,71,0.00,,---,0.00,VWS V14.01,2013-10-06 18:40:00,
2013-10-06 14:43:00,90.5,78.5,29.80,West,275,0.0,6.0,68,0.00,,---,0.00,VWS V14.01,2013-10-06 18:43:00,
2013-10-06 14:48:00,90.7,79.6,29.80,NW,304,3.0,6.0,70,0.00,,---,0.00,VWS V14.01,2013-10-06 18:48:00,
2013-10-06 14:50:00,89.9,79.7,29.82,SW,219,0.0,5.0,72,0.00,,---,0.00,VWS V14.01,2013-10-06 18:50:00,
2013-10-06 14:53:00,89.9,77.5,29.80,NW,313,2.0,8.0,67,0.00,,---,0.00,VWS V14.01,2013-10-06 18:53:00,
2013-10-06 14:58:00,89.9,77.5,29.80,SW,233,0.0,8.0,67,0.00,,---,0.00,VWS V14.01,2013-10-06 18:58:00,
2013-10-06 15:00:00,89.7,78.6,29.82,NW,309,0.0,3.0,70,0.00,,---,0.00,VWS V14.01,2013-10-06 19:00:00,
2013-10-06 15:03:00,89.3,77.4,29.80,SW,226,0.0,2.0,68,0.00,,---,0.00,VWS V14.01,2013-10-06 19:03:00,
2013-10-06 15:08:00,88.4,78.2,29.80,SW,227,1.0,2.0,72,0.00,,---,0.00,VWS V14.01,2013-10-06 19:08:00,
2013-10-06 15:10:00,89.9,77.5,29.82,West,275,0.0,7.0,67,0.00,,---,0.00,VWS V14.01,2013-10-06 19:10:00,
2013-10-06 15:13:00,87.4,76.8,29.80,North,356,0.0,4.0,71,0.00,,---,0.00,VWS V14.01,2013-10-06 19:13:00,
2013-10-06 15:18:00,86.3,77.8,29.79,NW,313,0.0,4.0,76,0.00,,---,0.00,VWS V14.01,2013-10-06 19:18:00,
2013-10-06 15:20:00,90.5,77.1,29.81,SSW,198,2.0,5.0,65,0.00,,---,0.00,VWS V14.01,2013-10-06 19:20:00,
2013-10-06 15:23:00,85.7,77.7,29.79,NW,306,0.0,2.0,77,0.00,,---,0.00,VWS V14.01,2013-10-06 19:23:00,
2013-10-06 15:28:00,85.5,77.9,29.79,NW,308,1.0,2.0,78,0.00,,---,0.00,VWS V14.01,2013-10-06 19:28:00,
2013-10-06 15:30:00,91.0,76.2,29.81,South,174,0.0,5.0,62,0.00,,---,0.00,VWS V14.01,2013-10-06 19:30:00,
2013-10-06 15:33:00,85.5,77.9,29.79,NW,308,0.0,3.0,78,0.00,,---,0.00,VWS V14.01,2013-10-06 19:33:00,
2013-10-06 15:38:00,85.5,77.9,29.79,NW,308,0.0,3.0,78,0.00,,---,0.00,VWS V14.01,2013-10-06 19:38:00,
2013-10-06 15:40:00,90.5,76.2,29.81,WNW,292,0.0,6.0,63,0.00,,---,0.00,VWS V14.01,2013-10-06 19:40:00,
2013-10-06 15:43:00,85.5,78.2,29.79,NW,326,2.0,5.0,79,0.00,,---,0.00,VWS V14.01,2013-10-06 19:43:00,
2013-10-06 15:48:00,85.5,77.5,29.78,NW,318,0.0,5.0,77,0.00,,---,0.00,VWS V14.01,2013-10-06 19:48:00,
2013-10-06 15:50:00,90.7,78.2,29.80,NW,318,7.0,7.0,67,0.00,,---,0.00,VWS V14.01,2013-10-06 19:50:00,
2013-10-06 15:53:00,85.5,77.9,29.78,NNW,328,0.0,0.0,78,0.00,,---,0.00,VWS V14.01,2013-10-06 19:53:00,
2013-10-06 15:58:00,86.1,78.4,29.78,NW,306,1.0,5.0,78,0.00,,---,0.00,VWS V14.01,2013-10-06 19:58:00,
2013-10-06 16:00:00,89.9,77.0,29.80,SW,233,0.0,8.0,66,0.00,,---,0.00,VWS V14.01,2013-10-06 20:00:00,
2013-10-06 16:03:00,86.7,79.4,29.78,NW,325,0.0,6.0,79,0.00,,---,0.00,VWS V14.01,2013-10-06 20:03:00,
2013-10-06 16:08:00,87.2,79.1,29.78,NW,325,1.0,8.0,77,0.00,,---,0.00,VWS V14.01,2013-10-06 20:08:00,
2013-10-06 16:10:00,88.4,77.8,29.80,SW,227,2.0,2.0,71,0.00,,---,0.00,VWS V14.01,2013-10-06 20:10:00,
2013-10-06 16:13:00,87.6,79.5,29.78,NW,306,0.0,7.0,77,0.00,,---,0.00,VWS V14.01,2013-10-06 20:13:00,
2013-10-06 16:18:00,88.0,79.9,29.78,NW,316,1.0,7.0,77,0.00,,---,0.00,VWS V14.01,2013-10-06 20:18:00,
2013-10-06 16:20:00,86.3,77.8,29.79,NW,309,0.0,4.0,76,0.00,,---,0.00,VWS V14.01,2013-10-06 20:20:00,
2013-10-06 16:23:00,88.0,79.5,29.78,West,271,3.0,9.0,76,0.00,,---,0.00,VWS V14.01,2013-10-06 20:23:00,
2013-10-06 16:28:00,88.0,78.3,29.78,NNW,328,2.0,9.0,73,0.00,,---,0.00,VWS V14.01,2013-10-06 20:28:00,
2013-10-06 16:30:00,85.5,78.2,29.79,NW,308,1.0,2.0,79,0.00,,---,0.00,VWS V14.01,2013-10-06 20:30:00,
2013-10-06 16:33:00,87.8,78.5,29.77,WNW,292,1.0,6.0,74,0.00,,---,0.00,VWS V14.01,2013-10-06 20:33:00,
2013-10-06 16:38:00,88.2,77.6,29.77,West,277,0.0,6.0,71,0.00,,---,0.00,VWS V14.01,2013-10-06 20:38:00,
2013-10-06 16:40:00,85.5,77.9,29.79,NNW,330,1.0,4.0,78,0.00,,---,0.00,VWS V14.01,2013-10-06 20:40:00,
2013-10-06 16:43:00,88.6,78.0,29.77,WNW,288,0.0,3.0,71,0.00,,---,0.00,VWS V14.01,2013-10-06 20:43:00,
2013-10-06 16:48:00,88.8,78.2,29.77,NW,323,3.0,3.0,71,0.00,,---,0.00,VWS V14.01,2013-10-06 20:48:00,
2013-10-06 16:50:00,85.5,77.5,29.78,NNW,328,0.0,5.0,77,0.00,,---,0.00,VWS V14.01,2013-10-06 20:50:00,
2013-10-06 16:53:00,88.4,77.8,29.77,WSW,246,1.0,6.0,71,0.00,,---,0.00,VWS V14.01,2013-10-06 20:53:00,
2013-10-06 16:58:00,88.6,78.4,29.77,WNW,299,1.0,6.0,72,0.00,,---,0.00,VWS V14.01,2013-10-06 20:58:00,
2013-10-06 17:00:00,86.3,79.4,29.78,NW,309,0.0,5.0,80,0.00,,---,0.00,VWS V14.01,2013-10-06 21:00:00,
2013-10-06 17:03:00,88.8,77.8,29.78,NW,311,2.0,5.0,70,0.00,,---,0.00,VWS V14.01,2013-10-06 21:03:00,
2013-10-06 17:08:00,88.2,77.2,29.78,WNW,298,1.0,8.0,70,0.00,,---,0.00,VWS V14.01,2013-10-06 21:08:00,
2013-10-06 17:10:00,87.4,79.7,29.78,NW,305,3.0,8.0,78,0.00,,---,0.00,VWS V14.01,2013-10-06 21:10:00,
2013-10-06 17:13:00,88.2,77.6,29.78,WNW,294,1.0,6.0,71,0.00,,---,0.00,VWS V14.01,2013-10-06 21:13:00,
2013-10-06 17:18:00,88.4,77.8,29.78,SW,223,0.0,6.0,71,0.00,,---,0.00,VWS V14.01,2013-10-06 21:18:00,
2013-10-06 17:20:00,88.2,80.5,29.78,WNW,301,2.0,7.0,78,0.00,,---,0.00,VWS V14.01,2013-10-06 21:20:00,
2013-10-06 17:23:00,88.4,77.4,29.78,WSW,244,1.0,5.0,70,0.00,,---,0.00,VWS V14.01,2013-10-06 21:23:00,
2013-10-06 17:28:00,88.4,77.8,29.77,WNW,285,1.0,5.0,71,0.00,,---,0.00,VWS V14.01,2013-10-06 21:28:00,
2013-10-06 17:30:00,88.0,79.1,29.77,West,261,2.0,9.0,75,0.00,,---,0.00,VWS V14.01,2013-10-06 21:30:00,
2013-10-06 17:33:00,88.0,76.1,29.77,NW,305,0.0,6.0,68,0.00,,---,0.00,VWS V14.01,2013-10-06 21:33:00,
2013-10-06 17:38:00,87.6,76.6,29.77,NW,311,2.0,6.0,70,0.00,,---,0.00,VWS V14.01,2013-10-06 21:38:00,
2013-10-06 17:40:00,88.2,78.0,29.77,West,277,0.0,6.0,72,0.00,,---,0.00,VWS V14.01,2013-10-06 21:40:00,
2013-10-06 17:43:00,87.6,76.6,29.77,NW,318,1.0,6.0,70,0.00,,---,0.00,VWS V14.01,2013-10-06 21:43:00,
2013-10-06 17:48:00,87.6,77.5,29.77,West,274,0.0,6.0,72,0.00,,---,0.00,VWS V14.01,2013-10-06 21:48:00,
2013-10-06 17:50:00,88.8,79.0,29.77,NNW,330,6.0,8.0,73,0.00,,---,0.00,VWS V14.01,2013-10-06 21:50:00,
2013-10-06 17:53:00,87.8,77.7,29.77,West,274,0.0,2.0,72,0.00,,---,0.00,VWS V14.01,2013-10-06 21:53:00,
2013-10-06 17:58:00,87.4,77.7,29.77,WNW,302,1.0,5.0,73,0.00,,---,0.00,VWS V14.01,2013-10-06 21:58:00,
2013-10-06 18:00:00,88.6,78.8,29.78,WNW,298,1.0,6.0,73,0.00,,---,0.00,VWS V14.01,2013-10-06 22:00:00,
2013-10-06 18:03:00,87.0,77.7,29.77,WNW,296,1.0,3.0,74,0.00,,---,0.00,VWS V14.01,2013-10-06 22:03:00,
2013-10-06 18:08:00,87.0,78.1,29.77,WNW,298,2.0,3.0,75,0.00,,---,0.00,VWS V14.01,2013-10-06 22:08:00,
2013-10-06 18:10:00,88.2,77.2,29.78,WNW,285,1.0,8.0,70,0.00,,---,0.00,VWS V14.01,2013-10-06 22:10:00,
2013-10-06 18:13:00,86.7,78.6,29.77,NW,318,5.0,6.0,77,0.00,,---,0.00,VWS V14.01,2013-10-06 22:13:00,
2013-10-06 18:18:00,85.7,79.6,29.77,West,268,0.0,7.0,82,0.00,,---,0.00,VWS V14.01,2013-10-06 22:18:00,
2013-10-06 18:20:00,88.4,78.7,29.78,NW,320,1.0,6.0,73,0.00,,---,0.00,VWS V14.01,2013-10-06 22:20:00,
2013-10-06 18:23:00,84.9,79.5,29.77,NW,312,2.0,3.0,84,0.00,,---,0.00,VWS V14.01,2013-10-06 22:23:00,
2013-10-06 18:28:00,84.1,79.1,29.77,WNW,285,0.0,3.0,85,0.00,,---,0.00,VWS V14.01,2013-10-06 22:28:00,
2013-10-06 18:30:00,88.4,77.8,29.77,NNW,329,4.0,5.0,71,0.00,,---,0.00,VWS V14.01,2013-10-06 22:30:00,
2013-10-06 18:33:00,83.6,79.7,29.77,NW,313,1.0,1.0,88,0.00,,---,0.00,VWS V14.01,2013-10-06 22:33:00,
2013-10-06 18:38:00,83.2,79.3,29.77,NW,318,0.0,2.0,88,0.00,,---,0.00,VWS V14.01,2013-10-06 22:38:00,
2013-10-06 18:40:00,87.6,76.2,29.77,NW,304,1.0,6.0,69,0.00,,---,0.00,VWS V14.01,2013-10-06 22:40:00,
2013-10-06 18:43:00,82.8,79.2,29.78,NW,323,0.0,1.0,89,0.00,,---,0.00,VWS V14.01,2013-10-06 22:43:00,
2013-10-06 18:48:00,82.6,79.4,29.78,NW,309,0.0,2.0,90,0.00,,---,0.00,VWS V14.01,2013-10-06 22:48:00,
2013-10-06 18:50:00,87.8,77.7,29.77,West,274,0.0,6.0,72,0.00,,---,0.00,VWS V14.01,2013-10-06 22:50:00,
2013-10-06 18:53:00,82.4,80.2,29.78,NW,309,0.0,0.0,93,0.00,,---,0.00,VWS V14.01,2013-10-06 22:53:00,
2013-10-06 18:58:00,82.2,80.9,29.78,NW,318,0.0,2.0,96,0.00,,---,0.00,VWS V14.01,2013-10-06 22:58:00,
2013-10-06 19:00:00,87.4,77.7,29.77,NW,304,1.0,5.0,73,0.00,,---,0.00,VWS V14.01,2013-10-06 23:00:00,
2013-10-06 19:03:00,81.8,80.6,29.78,North,357,0.0,0.0,96,0.00,,---,0.00,VWS V14.01,2013-10-06 23:03:00,
2013-10-06 19:08:00,81.6,80.3,29.78,North,356,0.0,0.0,96,0.00,,---,0.00,VWS V14.01,2013-10-06 23:08:00,
2013-10-06 19:10:00,87.0,77.7,29.77,WNW,298,0.0,3.0,74,0.00,,---,0.00,VWS V14.01,2013-10-06 23:10:00,
2013-10-06 19:13:00,81.4,80.2,29.78,North,357,0.0,0.0,96,0.00,,---,0.00,VWS V14.01,2013-10-06 23:13:00,
2013-10-06 19:18:00,81.2,80.0,29.78,NW,320,0.0,0.0,96,0.00,,---,0.00,VWS V14.01,2013-10-06 23:18:00,
2013-10-06 19:20:00,85.5,79.4,29.77,WNW,299,0.0,7.0,82,0.00,,---,0.00,VWS V14.01,2013-10-06 23:20:00,
2013-10-06 19:23:00,81.1,79.9,29.78,NW,325,0.0,0.0,96,0.00,,---,0.00,VWS V14.01,2013-10-06 23:23:00,
2013-10-06 19:28:00,81.1,79.9,29.78,North,356,0.0,0.0,96,0.00,,---,0.00,VWS V14.01,2013-10-06 23:28:00,
2013-10-06 19:30:00,84.0,79.4,29.77,WNW,287,0.0,3.0,86,0.00,,---,0.00,VWS V14.01,2013-10-06 23:30:00,
2013-10-06 19:33:00,80.9,79.7,29.78,North,357,0.0,0.0,96,0.00,,---,0.00,VWS V14.01,2013-10-06 23:33:00,
2013-10-06 19:38:00,80.7,79.5,29.78,NW,305,0.0,0.0,96,0.00,,---,0.00,VWS V14.01,2013-10-06 23:38:00,
2013-10-06 19:40:00,83.0,79.4,29.77,NW,322,0.0,2.0,89,0.00,,---,0.00,VWS V14.01,2013-10-06 23:40:00,
2013-10-06 19:43:00,80.5,79.3,29.78,NW,305,0.0,0.0,96,0.00,,---,0.00,VWS V14.01,2013-10-06 23:43:00,
2013-10-06 19:48:00,80.5,79.3,29.79,NW,311,0.0,0.0,96,0.00,,---,0.00,VWS V14.01,2013-10-06 23:48:00,
2013-10-06 19:50:00,82.6,79.4,29.78,NW,312,0.0,2.0,90,0.00,,---,0.00,VWS V14.01,2013-10-06 23:50:00,
2013-10-06 19:53:00,80.3,79.1,29.79,NW,305,0.0,0.0,96,0.00,,---,0.00,VWS V14.01,2013-10-06 23:53:00,
2013-10-06 19:58:00,80.3,79.1,29.79,NW,305,0.0,0.0,96,0.00,,---,0.00,VWS V14.01,2013-10-06 23:58:00,
2013-10-06 20:00:00,82.2,80.9,29.78,NW,306,0.0,2.0,96,0.00,,---,0.00,VWS V14.01,2013-10-07 00:00:00,
2013-10-06 20:03:00,80.1,78.9,29.79,NW,304,0.0,0.0,96,0.00,,---,0.00,VWS V14.01,2013-10-07 00:03:00,
2013-10-06 20:08:00,79.9,78.7,29.79,NW,315,0.0,0.0,96,0.00,,---,0.00,VWS V14.01,2013-10-07 00:08:00,
2013-10-06 20:10:00,81.6,80.3,29.78,North,357,0.0,0.0,96,0.00,,---,0.00,VWS V14.01,2013-10-07 00:10:00,
2013-10-06 20:13:00,79.6,78.4,29.79,NW,304,0.0,0.0,96,0.00,,---,0.00,VWS V14.01,2013-10-07 00:13:00,
2013-10-06 20:18:00,79.4,78.2,29.79,NW,318,0.0,0.0,96,0.00,,---,0.00,VWS V14.01,2013-10-07 00:18:00,
2013-10-06 20:20:00,81.2,80.0,29.78,NW,318,0.0,0.0,96,0.00,,---,0.00,VWS V14.01,2013-10-07 00:20:00,
2013-10-06 20:23:00,79.2,78.0,29.79,NW,304,0.0,0.0,96,0.00,,---,0.00,VWS V14.01,2013-10-07 00:23:00,
2013-10-06 20:28:00,79.0,77.8,29.79,NW,304,0.0,0.0,96,0.00,,---,0.00,VWS V14.01,2013-10-07 00:28:00,
2013-10-06 20:30:00,80.9,79.7,29.78,NW,306,0.0,0.0,96,0.00,,---,0.00,VWS V14.01,2013-10-07 00:30:00,
2013-10-06 20:33:00,78.8,77.6,29.79,NW,304,0.0,0.0,96,0.00,,---,0.00,VWS V14.01,2013-10-07 00:33:00,
2013-10-06 20:38:00,78.6,77.4,29.79,NW,304,0.0,0.0,96,0.00,,---,0.00,VWS V14.01,2013-10-07 00:38:00,
2013-10-06 20:40:00,80.7,79.5,29.78,NW,305,0.0,0.0,96,0.00,,---,0.00,VWS V14.01,2013-10-07 00:40:00,
2013-10-06 20:43:00,78.5,77.3,29.79,NW,305,0.0,0.0,96,0.00,,---,0.00,VWS V14.01,2013-10-07 00:43:00,
2013-10-06 20:48:00,78.3,77.1,29.80,NW,304,0.0,0.0,96,0.00,,---,0.00,VWS V14.01,2013-10-07 00:48:00,
2013-10-06 20:50:00,80.5,79.3,29.79,NW,306,0.0,0.0,96,0.00,,---,0.00,VWS V14.01,2013-10-07 00:50:00,
2013-10-06 20:53:00,78.1,76.9,29.80,NW,304,0.0,0.0,96,0.00,,---,0.00,VWS V14.01,2013-10-07 00:53:00,
2013-10-06 20:58:00,77.7,76.5,29.80,NW,305,0.0,0.0,96,0.00,,---,0.00,VWS V14.01,2013-10-07 00:58:00,
2013-10-06 21:00:00,80.3,79.1,29.79,NW,306,0.0,0.0,96,0.00,,---,0.00,VWS V14.01,2013-10-07 01:00:00,
2013-10-06 21:03:00,77.7,76.5,29.80,NW,305,0.0,0.0,96,0.00,,---,0.00,VWS V14.01,2013-10-07 01:03:00,
2013-10-06 21:08:00,77.7,76.5,29.80,NW,305,0.0,0.0,96,0.00,,---,0.00,VWS V14.01,2013-10-07 01:08:00,
2013-10-06 21:10:00,79.9,78.7,29.79,NW,305,0.0,0.0,96,0.00,,---,0.00,VWS V14.01,2013-10-07 01:10:00,
2013-10-06 21:13:00,77.7,76.5,29.80,NW,305,0.0,0.0,96,0.00,,---,0.00,VWS V14.01,2013-10-07 01:13:00,
2013-10-06 21:18:00,77.7,76.5,29.80,NW,305,0.0,0.0,96,0.00,,---,0.00,VWS V14.01,2013-10-07 01:18:00,
2013-10-06 21:20:00,79.4,78.2,29.79,NW,304,0.0,0.0,96,0.00,,---,0.00,VWS V14.01,2013-10-07 01:20:00,
2013-10-06 21:23:00,77.7,76.5,29.80,NW,305,0.0,0.0,96,0.00,,---,0.00,VWS V14.01,2013-10-07 01:23:00,
2013-10-06 21:28:00,77.7,76.5,29.80,NW,305,0.0,0.0,96,0.00,,---,0.00,VWS V14.01,2013-10-07 01:28:00,
2013-10-06 21:30:00,79.0,77.8,29.79,NW,304,0.0,0.0,96,0.00,,---,0.00,VWS V14.01,2013-10-07 01:30:00,
2013-10-06 21:33:00,77.7,76.5,29.80,NW,305,0.0,0.0,96,0.00,,---,0.00,VWS V14.01,2013-10-07 01:33:00,
2013-10-06 21:38:00,77.7,76.5,29.80,NW,305,0.0,0.0,96,0.00,,---,0.00,VWS V14.01,2013-10-07 01:38:00,
2013-10-06 21:40:00,78.6,77.4,29.79,NW,304,0.0,0.0,96,0.00,,---,0.00,VWS V14.01,2013-10-07 01:40:00,
2013-10-06 21:43:00,77.7,76.5,29.80,NW,305,0.0,0.0,96,0.00,,---,0.00,VWS V14.01,2013-10-07 01:43:00,
2013-10-06 21:48:00,77.7,76.5,29.80,NW,305,0.0,0.0,96,0.00,,---,0.00,VWS V14.01,2013-10-07 01:48:00,
2013-10-06 21:50:00,78.1,76.9,29.80,NW,304,0.0,0.0,96,0.00,,---,0.00,VWS V14.01,2013-10-07 01:50:00,
2013-10-06 21:53:00,77.7,76.5,29.80,NW,305,0.0,0.0,96,0.00,,---,0.00,VWS V14.01,2013-10-07 01:53:00,
2013-10-06 21:58:00,77.7,76.5,29.80,NW,305,0.0,0.0,96,0.00,,---,0.00,VWS V14.01,2013-10-07 01:58:00,
2013-10-06 22:00:00,77.7,76.5,29.80,NW,305,0.0,0.0,96,0.00,,---,0.00,VWS V14.01,2013-10-07 02:00:00,
2013-10-06 22:03:00,77.7,76.5,29.80,NW,305,0.0,0.0,96,0.00,,---,0.00,VWS V14.01,2013-10-07 02:03:00,
2013-10-06 22:08:00,77.7,76.5,29.80,NW,305,0.0,0.0,96,0.00,,---,0.00,VWS V14.01,2013-10-07 02:08:00,
2013-10-06 22:10:00,77.7,76.5,29.80,NW,305,0.0,0.0,96,0.00,,---,0.00,VWS V14.01,2013-10-07 02:10:00,
2013-10-06 22:13:00,77.7,76.5,29.80,NW,305,0.0,0.0,96,0.00,,---,0.00,VWS V14.01,2013-10-07 02:13:00,
2013-10-06 22:18:00,77.7,76.5,29.80,NW,305,0.0,0.0,96,0.00,,---,0.00,VWS V14.01,2013-10-07 02:18:00,
2013-10-06 22:20:00,77.7,76.5,29.80,NW,305,0.0,0.0,96,0.00,,---,0.00,VWS V14.01,2013-10-07 02:20:00,
2013-10-06 22:23:00,77.7,76.5,29.80,NW,305,0.0,0.0,96,0.00,,---,0.00,VWS V14.01,2013-10-07 02:23:00,
2013-10-06 22:28:00,77.7,76.5,29.80,NW,305,0.0,0.0,96,0.00,,---,0.00,VWS V14.01,2013-10-07 02:28:00,
2013-10-06 22:30:00,77.7,76.5,29.80,NW,305,0.0,0.0,96,0.00,,---,0.00,VWS V14.01,2013-10-07 02:30:00,
2013-10-06 22:33:00,77.7,76.5,29.80,NW,305,0.0,0.0,96,0.00,,---,0.00,VWS V14.01,2013-10-07 02:33:00,
2013-10-06 22:38:00,77.7,76.5,29.80,NW,305,0.0,0.0,96,0.00,,---,0.00,VWS V14.01,2013-10-07 02:38:00,
2013-10-06 22:40:00,77.7,76.5,29.80,NW,305,0.0,0.0,96,0.00,,---,0.00,VWS V14.01,2013-10-07 02:40:00,
2013-10-06 22:43:00,77.7,76.5,29.80,NW,305,0.0,0.0,96,0.00,,---,0.00,VWS V14.01,2013-10-07 02:43:00,
2013-10-06 22:48:00,77.7,76.5,29.80,NW,305,0.0,0.0,96,0.00,,---,0.00,VWS V14.01,2013-10-07 02:48:00,
2013-10-06 22:50:00,77.7,76.5,29.80,NW,305,0.0,0.0,96,0.00,,---,0.00,VWS V14.01,2013-10-07 02:50:00,
2013-10-06 22:53:00,75.1,73.9,29.80,NW,311,0.0,0.0,96,0.00,,---,0.00,VWS V14.01,2013-10-07 02:53:00,
2013-10-06 22:58:00,75.1,73.9,29.80,NW,304,0.0,0.0,96,0.00,,---,0.00,VWS V14.01,2013-10-07 02:58:00,
2013-10-06 23:00:00,77.7,76.5,29.80,NW,305,0.0,0.0,96,0.00,,---,0.00,VWS V14.01,2013-10-07 03:00:00,
2013-10-06 23:03:00,75.3,74.1,29.79,NW,306,0.0,0.0,96,0.00,,---,0.00,VWS V14.01,2013-10-07 03:03:00,
2013-10-06 23:08:00,75.1,73.9,29.79,NW,308,0.0,0.0,96,0.00,,---,0.00,VWS V14.01,2013-10-07 03:08:00,
2013-10-06 23:10:00,77.7,76.5,29.80,NW,305,0.0,0.0,96,0.00,,---,0.00,VWS V14.01,2013-10-07 03:10:00,
2013-10-06 23:13:00,75.1,73.9,29.79,NW,306,0.0,0.0,96,0.00,,---,0.00,VWS V14.01,2013-10-07 03:13:00,
2013-10-06 23:18:00,75.1,73.9,29.78,NW,312,0.0,0.0,96,0.00,,---,0.00,VWS V14.01,2013-10-07 03:18:00,
2013-10-06 23:20:00,77.7,76.5,29.80,NW,305,0.0,0.0,96,0.00,,---,0.00,VWS V14.01,2013-10-07 03:20:00,
2013-10-06 23:23:00,75.1,73.9,29.78,NW,306,0.0,0.0,96,0.00,,---,0.00,VWS V14.01,2013-10-07 03:23:00,
2013-10-06 23:28:00,75.1,73.9,29.78,NW,305,0.0,0.0,96,0.00,,---,0.00,VWS V14.01,2013-10-07 03:28:00,
2013-10-06 23:30:00,77.7,76.5,29.80,NW,305,0.0,0.0,96,0.00,,---,0.00,VWS V14.01,2013-10-07 03:30:00,
2013-10-06 23:33:00,75.1,73.9,29.78,NW,304,0.0,0.0,96,0.00,,---,0.00,VWS V14.01,2013-10-07 03:33:00,
2013-10-06 23:38:00,75.1,73.9,29.78,NW,306,0.0,0.0,96,0.00,,---,0.00,VWS V14.01,2013-10-07 03:38:00,
2013-10-06 23:40:00,77.7,76.5,29.80,NW,305,0.0,0.0,96,0.00,,---,0.00,VWS V14.01,2013-10-07 03:40:00,
2013-10-06 23:43:00,75.1,73.9,29.78,NW,304,0.0,0.0,96,0.00,,---,0.00,VWS V14.01,2013-10-07 03:43:00,
2013-10-06 23:48:00,75.1,73.9,29.78,NW,304,0.0,0.0,96,0.00,,---,0.00,VWS V14.01,2013-10-07 03:48:00,
2013-10-06 23:50:00,77.7,76.5,29.80,NW,305,0.0,0.0,96,0.00,,---,0.00,VWS V14.01,2013-10-07 03:50:00,
2013-10-06 23:53:00,75.1,73.9,29.78,NW,309,0.0,0.0,96,0.00,,---,0.00,VWS V14.01,2013-10-07 03:53:00,
2013-10-06 23:58:00,75.1,73.9,29.78,NW,313,0.0,0.0,96,0.00,,---,0.00,VWS V14.01,2013-10-07 03:58:00,